event-id,visible,timestamp,location-long,location-lat,comments,sensor-type,individual-taxon-canonical-name,tag-local-identifier,individual-local-identifier,study-name
17130060579,true,2014-06-01 10:00:33.000,27.41148,-25.85245,"Home-range/Territory","gps","Panthera pardus","LF02","Brandy","Daily satellite location data for leopard management in the North West Province, South Africa, 2014-2020"
17130060580,true,2014-06-02 10:01:34.000,27.36187,-25.85368,"Home-range/Territory","gps","Panthera pardus","LF02","Brandy","Daily satellite location data for leopard management in the North West Province, South Africa, 2014-2020"
17130060581,true,2014-06-03 10:00:54.000,27.33613,-25.84062,"Home-range/Territory","gps","Panthera pardus","LF02","Brandy","Daily satellite location data for leopard management in the North West Province, South Africa, 2014-2020"
17130060582,true,2014-06-04 10:00:33.000,27.28963,-25.83278,"Home-range/Territory","gps","Panthera pardus","LF02","Brandy","Daily satellite location data for leopard management in the North West Province, South Africa, 2014-2020"
17130060583,true,2014-06-05 10:00:34.000,27.28845,-25.84213,"Home-range/Territory","gps","Panthera pardus","LF02","Brandy","Daily satellite location data for leopard management in the North West Province, South Africa, 2014-2020"
17130060584,true,2014-06-06 10:00:33.000,27.28887,-25.84155,"Home-range/Territory","gps","Panthera pardus","LF02","Brandy","Daily satellite location data for leopard management in the North West Province, South Africa, 2014-2020"
17130060585,true,2014-06-08 10:00:33.000,27.3312,-25.83993,"Home-range/Territory","gps","Panthera pardus","LF02","Brandy","Daily satellite location data for leopard management in the North West Province, South Africa, 2014-2020"
17130060586,true,2014-06-09 10:00:33.000,27.37967,-25.86402,"Home-range/Territory","gps","Panthera pardus","LF02","Brandy","Daily satellite location data for leopard management in the North West Province, South Africa, 2014-2020"
17130060587,true,2014-06-10 10:00:33.000,27.29685,-25.84227,"Home-range/Territory","gps","Panthera pardus","LF02","Brandy","Daily satellite location data for leopard management in the North West Province, South Africa, 2014-2020"
17130060588,true,2014-06-12 10:00:33.000,27.29392,-25.83995,"Home-range/Territory","gps","Panthera pardus","LF02","Brandy","Daily satellite location data for leopard management in the North West Province, South Africa, 2014-2020"
17130060589,true,2014-06-13 10:00:33.000,27.39238,-25.8656,"Home-range/Territory","gps","Panthera pardus","LF02","Brandy","Daily satellite location data for leopard management in the North West Province, South Africa, 2014-2020"
17130060590,true,2014-06-14 10:00:59.000,27.34987,-25.84852,"Home-range/Territory","gps","Panthera pardus","LF02","Brandy","Daily satellite location data for leopard management in the North West Province, South Africa, 2014-2020"
17130060591,true,2014-06-15 10:00:33.000,27.43692,-25.86937,"Home-range/Territory","gps","Panthera pardus","LF02","Brandy","Daily satellite location data for leopard management in the North West Province, South Africa, 2014-2020"
17130060592,true,2014-06-16 10:00:34.000,27.30115,-25.84283,"Home-range/Territory","gps","Panthera pardus","LF02","Brandy","Daily satellite location data for leopard management in the North West Province, South Africa, 2014-2020"
17130060593,true,2014-06-17 10:00:33.000,27.33058,-25.84037,"Home-range/Territory","gps","Panthera pardus","LF02","Brandy","Daily satellite location data for leopard management in the North West Province, South Africa, 2014-2020"
17130060594,true,2014-06-18 10:02:04.000,27.3292,-25.8354,"Home-range/Territory","gps","Panthera pardus","LF02","Brandy","Daily satellite location data for leopard management in the North West Province, South Africa, 2014-2020"
17130060595,true,2014-06-19 10:00:33.000,27.30207,-25.83865,"Home-range/Territory","gps","Panthera pardus","LF02","Brandy","Daily satellite location data for leopard management in the North West Province, South Africa, 2014-2020"
17130060596,true,2014-06-20 10:00:58.000,27.33212,-25.84008,"Home-range/Territory","gps","Panthera pardus","LF02","Brandy","Daily satellite location data for leopard management in the North West Province, South Africa, 2014-2020"
17130060597,true,2014-06-21 10:00:33.000,27.33152,-25.83672,"Home-range/Territory","gps","Panthera pardus","LF02","Brandy","Daily satellite location data for leopard management in the North West Province, South Africa, 2014-2020"
17130060598,true,2014-06-22 10:00:33.000,27.33327,-25.8372,"Home-range/Territory","gps","Panthera pardus","LF02","Brandy","Daily satellite location data for leopard management in the North West Province, South Africa, 2014-2020"
17130060599,true,2014-06-23 10:00:33.000,27.33302,-25.83707,"Home-range/Territory","gps","Panthera pardus","LF02","Brandy","Daily satellite location data for leopard management in the North West Province, South Africa, 2014-2020"
17130060600,true,2014-06-24 10:00:33.000,27.33612,-25.84352,"Home-range/Territory","gps","Panthera pardus","LF02","Brandy","Daily satellite location data for leopard management in the North West Province, South Africa, 2014-2020"
17130060601,true,2014-06-25 10:00:34.000,27.31325,-25.89122,"Home-range/Territory","gps","Panthera pardus","LF02","Brandy","Daily satellite location data for leopard management in the North West Province, South Africa, 2014-2020"
17130060602,true,2014-06-26 10:00:33.000,27.31285,-25.88963,"Home-range/Territory","gps","Panthera pardus","LF02","Brandy","Daily satellite location data for leopard management in the North West Province, South Africa, 2014-2020"
17130060603,true,2014-06-27 10:00:33.000,27.31285,-25.88963,"Home-range/Territory","gps","Panthera pardus","LF02","Brandy","Daily satellite location data for leopard management in the North West Province, South Africa, 2014-2020"
17130060604,true,2014-06-28 10:00:33.000,27.31288,-25.88963,"Home-range/Territory","gps","Panthera pardus","LF02","Brandy","Daily satellite location data for leopard management in the North West Province, South Africa, 2014-2020"
17130060605,true,2014-06-29 10:00:33.000,27.33967,-25.8447,"Home-range/Territory","gps","Panthera pardus","LF02","Brandy","Daily satellite location data for leopard management in the North West Province, South Africa, 2014-2020"
17130060606,true,2014-07-01 10:00:33.000,27.45838,-25.86968,"Home-range/Territory","gps","Panthera pardus","LF02","Brandy","Daily satellite location data for leopard management in the North West Province, South Africa, 2014-2020"
17130060607,true,2014-07-02 10:00:57.000,27.33882,-25.85143,"Home-range/Territory","gps","Panthera pardus","LF02","Brandy","Daily satellite location data for leopard management in the North West Province, South Africa, 2014-2020"
17130060608,true,2014-07-04 10:01:04.000,27.33092,-25.83685,"Home-range/Territory","gps","Panthera pardus","LF02","Brandy","Daily satellite location data for leopard management in the North West Province, South Africa, 2014-2020"
17130060609,true,2014-07-05 10:00:33.000,27.3326,-25.8357,"Home-range/Territory","gps","Panthera pardus","LF02","Brandy","Daily satellite location data for leopard management in the North West Province, South Africa, 2014-2020"
17130060610,true,2014-07-06 10:00:59.000,27.33253,-25.83572,"Home-range/Territory","gps","Panthera pardus","LF02","Brandy","Daily satellite location data for leopard management in the North West Province, South Africa, 2014-2020"
17130060611,true,2014-07-07 10:00:33.000,27.3363,-25.8429,"Home-range/Territory","gps","Panthera pardus","LF02","Brandy","Daily satellite location data for leopard management in the North West Province, South Africa, 2014-2020"
17130060612,true,2014-07-08 10:00:33.000,27.30198,-25.83828,"Home-range/Territory","gps","Panthera pardus","LF02","Brandy","Daily satellite location data for leopard management in the North West Province, South Africa, 2014-2020"
17130060613,true,2014-07-09 10:01:03.000,27.28835,-25.82743,"Home-range/Territory","gps","Panthera pardus","LF02","Brandy","Daily satellite location data for leopard management in the North West Province, South Africa, 2014-2020"
17130060614,true,2014-07-10 10:00:33.000,27.30443,-25.84267,"Home-range/Territory","gps","Panthera pardus","LF02","Brandy","Daily satellite location data for leopard management in the North West Province, South Africa, 2014-2020"
17130060615,true,2014-07-11 10:00:33.000,27.28793,-25.82682,"Home-range/Territory","gps","Panthera pardus","LF02","Brandy","Daily satellite location data for leopard management in the North West Province, South Africa, 2014-2020"
17130060616,true,2014-07-12 10:00:33.000,27.26565,-25.79685,"Home-range/Territory","gps","Panthera pardus","LF02","Brandy","Daily satellite location data for leopard management in the North West Province, South Africa, 2014-2020"
17130060617,true,2014-07-13 10:00:33.000,27.27832,-25.80135,"Home-range/Territory","gps","Panthera pardus","LF02","Brandy","Daily satellite location data for leopard management in the North West Province, South Africa, 2014-2020"
17130060618,true,2014-07-14 10:00:33.000,27.29018,-25.84018,"Home-range/Territory","gps","Panthera pardus","LF02","Brandy","Daily satellite location data for leopard management in the North West Province, South Africa, 2014-2020"
17130060619,true,2014-07-15 10:00:33.000,27.36798,-25.86148,"Home-range/Territory","gps","Panthera pardus","LF02","Brandy","Daily satellite location data for leopard management in the North West Province, South Africa, 2014-2020"
17130060620,true,2014-07-17 10:00:33.000,27.40767,-25.86873,"Home-range/Territory","gps","Panthera pardus","LF02","Brandy","Daily satellite location data for leopard management in the North West Province, South Africa, 2014-2020"
17130060621,true,2014-07-18 10:00:33.000,27.38732,-25.8731,"Home-range/Territory","gps","Panthera pardus","LF02","Brandy","Daily satellite location data for leopard management in the North West Province, South Africa, 2014-2020"
17130060622,true,2014-07-19 10:00:34.000,27.3829,-25.8622,"Home-range/Territory","gps","Panthera pardus","LF02","Brandy","Daily satellite location data for leopard management in the North West Province, South Africa, 2014-2020"
17130060623,true,2014-07-20 10:00:33.000,27.38755,-25.8653,"Home-range/Territory","gps","Panthera pardus","LF02","Brandy","Daily satellite location data for leopard management in the North West Province, South Africa, 2014-2020"
17130060624,true,2014-07-21 10:00:33.000,27.3865,-25.86245,"Home-range/Territory","gps","Panthera pardus","LF02","Brandy","Daily satellite location data for leopard management in the North West Province, South Africa, 2014-2020"
17130060625,true,2014-07-23 10:00:33.000,27.44623,-25.85865,"Home-range/Territory","gps","Panthera pardus","LF02","Brandy","Daily satellite location data for leopard management in the North West Province, South Africa, 2014-2020"
17130060626,true,2014-07-24 10:00:33.000,27.5046,-25.86473,"Home-range/Territory","gps","Panthera pardus","LF02","Brandy","Daily satellite location data for leopard management in the North West Province, South Africa, 2014-2020"
17130060627,true,2014-07-25 10:01:34.000,27.50127,-25.8517,"Home-range/Territory","gps","Panthera pardus","LF02","Brandy","Daily satellite location data for leopard management in the North West Province, South Africa, 2014-2020"
17130060628,true,2014-07-27 10:00:33.000,27.51567,-25.82488,"Home-range/Territory","gps","Panthera pardus","LF02","Brandy","Daily satellite location data for leopard management in the North West Province, South Africa, 2014-2020"
17130060629,true,2014-07-28 10:00:33.000,27.46233,-25.87073,"Home-range/Territory","gps","Panthera pardus","LF02","Brandy","Daily satellite location data for leopard management in the North West Province, South Africa, 2014-2020"
17130060630,true,2014-07-29 10:00:33.000,27.39768,-25.86678,"Home-range/Territory","gps","Panthera pardus","LF02","Brandy","Daily satellite location data for leopard management in the North West Province, South Africa, 2014-2020"
17130060631,true,2014-07-30 10:02:04.000,27.39715,-25.86677,"Home-range/Territory","gps","Panthera pardus","LF02","Brandy","Daily satellite location data for leopard management in the North West Province, South Africa, 2014-2020"
17130060632,true,2014-07-31 10:00:33.000,27.40698,-25.86775,"Home-range/Territory","gps","Panthera pardus","LF02","Brandy","Daily satellite location data for leopard management in the North West Province, South Africa, 2014-2020"
17130060633,true,2014-08-01 10:00:33.000,27.32163,-25.83213,"Home-range/Territory","gps","Panthera pardus","LF02","Brandy","Daily satellite location data for leopard management in the North West Province, South Africa, 2014-2020"
17130060634,true,2014-08-02 10:00:33.000,27.26918,-25.80178,"Home-range/Territory","gps","Panthera pardus","LF02","Brandy","Daily satellite location data for leopard management in the North West Province, South Africa, 2014-2020"
17130060635,true,2014-08-03 10:01:17.000,27.27042,-25.80128,"Home-range/Territory","gps","Panthera pardus","LF02","Brandy","Daily satellite location data for leopard management in the North West Province, South Africa, 2014-2020"
17130060636,true,2014-08-04 10:00:33.000,27.26777,-25.80028,"Home-range/Territory","gps","Panthera pardus","LF02","Brandy","Daily satellite location data for leopard management in the North West Province, South Africa, 2014-2020"
17130060637,true,2014-08-07 10:01:25.000,27.27327,-25.80417,"Home-range/Territory","gps","Panthera pardus","LF02","Brandy","Daily satellite location data for leopard management in the North West Province, South Africa, 2014-2020"
17130060638,true,2014-08-08 10:00:33.000,27.28325,-25.80542,"Home-range/Territory","gps","Panthera pardus","LF02","Brandy","Daily satellite location data for leopard management in the North West Province, South Africa, 2014-2020"
17130060639,true,2014-08-09 10:00:34.000,27.2832,-25.8054,"Home-range/Territory","gps","Panthera pardus","LF02","Brandy","Daily satellite location data for leopard management in the North West Province, South Africa, 2014-2020"
17130060640,true,2014-08-11 10:00:33.000,27.28682,-25.80448,"Home-range/Territory","gps","Panthera pardus","LF02","Brandy","Daily satellite location data for leopard management in the North West Province, South Africa, 2014-2020"
17130060641,true,2014-08-14 10:00:33.000,27.28597,-25.82572,"Home-range/Territory","gps","Panthera pardus","LF02","Brandy","Daily satellite location data for leopard management in the North West Province, South Africa, 2014-2020"
17130060642,true,2014-08-15 10:00:34.000,27.28397,-25.81582,"Home-range/Territory","gps","Panthera pardus","LF02","Brandy","Daily satellite location data for leopard management in the North West Province, South Africa, 2014-2020"
17130060643,true,2014-08-16 10:00:33.000,27.32823,-25.83323,"Home-range/Territory","gps","Panthera pardus","LF02","Brandy","Daily satellite location data for leopard management in the North West Province, South Africa, 2014-2020"
17130060644,true,2014-08-18 10:00:27.000,27.57648,-25.83712,"Home-range/Territory","gps","Panthera pardus","LF02","Brandy","Daily satellite location data for leopard management in the North West Province, South Africa, 2014-2020"
17130060645,true,2014-08-19 10:00:33.000,27.601,-25.815,"Home-range/Territory","gps","Panthera pardus","LF02","Brandy","Daily satellite location data for leopard management in the North West Province, South Africa, 2014-2020"
17130060646,true,2014-08-20 10:00:33.000,27.58132,-25.83683,"Home-range/Territory","gps","Panthera pardus","LF02","Brandy","Daily satellite location data for leopard management in the North West Province, South Africa, 2014-2020"
17130060647,true,2014-08-21 10:00:33.000,27.58163,-25.8377,"Home-range/Territory","gps","Panthera pardus","LF02","Brandy","Daily satellite location data for leopard management in the North West Province, South Africa, 2014-2020"
17130060648,true,2014-08-22 10:01:04.000,27.58132,-25.83685,"Home-range/Territory","gps","Panthera pardus","LF02","Brandy","Daily satellite location data for leopard management in the North West Province, South Africa, 2014-2020"
17130060649,true,2014-08-23 10:00:33.000,27.58355,-25.83858,"Home-range/Territory","gps","Panthera pardus","LF02","Brandy","Daily satellite location data for leopard management in the North West Province, South Africa, 2014-2020"
17130060650,true,2014-08-24 10:00:34.000,27.60032,-25.81808,"Home-range/Territory","gps","Panthera pardus","LF02","Brandy","Daily satellite location data for leopard management in the North West Province, South Africa, 2014-2020"
17130060651,true,2014-08-25 10:00:33.000,27.6518,-25.78748,"Home-range/Territory","gps","Panthera pardus","LF02","Brandy","Daily satellite location data for leopard management in the North West Province, South Africa, 2014-2020"
17130060652,true,2014-08-26 10:00:33.000,27.61615,-25.79365,"Home-range/Territory","gps","Panthera pardus","LF02","Brandy","Daily satellite location data for leopard management in the North West Province, South Africa, 2014-2020"
17130060653,true,2014-08-27 10:01:04.000,27.56188,-25.8451,"Home-range/Territory","gps","Panthera pardus","LF02","Brandy","Daily satellite location data for leopard management in the North West Province, South Africa, 2014-2020"
17130060654,true,2014-08-28 10:00:33.000,27.48403,-25.86803,"Home-range/Territory","gps","Panthera pardus","LF02","Brandy","Daily satellite location data for leopard management in the North West Province, South Africa, 2014-2020"
17130060655,true,2014-08-30 10:00:33.000,27.50117,-25.85708,"Home-range/Territory","gps","Panthera pardus","LF02","Brandy","Daily satellite location data for leopard management in the North West Province, South Africa, 2014-2020"
17130060656,true,2014-08-31 10:00:21.000,27.4907,-25.8412,"Home-range/Territory","gps","Panthera pardus","LF02","Brandy","Daily satellite location data for leopard management in the North West Province, South Africa, 2014-2020"
17130060657,true,2014-09-01 10:00:33.000,27.48752,-25.8665,"Home-range/Territory","gps","Panthera pardus","LF02","Brandy","Daily satellite location data for leopard management in the North West Province, South Africa, 2014-2020"
17130060658,true,2014-09-02 10:02:04.000,27.56307,-25.84617,"Home-range/Territory","gps","Panthera pardus","LF02","Brandy","Daily satellite location data for leopard management in the North West Province, South Africa, 2014-2020"
17130060659,true,2014-09-03 10:00:33.000,27.56262,-25.84392,"Home-range/Territory","gps","Panthera pardus","LF02","Brandy","Daily satellite location data for leopard management in the North West Province, South Africa, 2014-2020"
17130060660,true,2014-09-04 10:00:33.000,27.56352,-25.84277,"Home-range/Territory","gps","Panthera pardus","LF02","Brandy","Daily satellite location data for leopard management in the North West Province, South Africa, 2014-2020"
17130060661,true,2014-09-05 10:00:33.000,27.5154,-25.82418,"Home-range/Territory","gps","Panthera pardus","LF02","Brandy","Daily satellite location data for leopard management in the North West Province, South Africa, 2014-2020"
17130060662,true,2014-09-06 10:00:33.000,27.50667,-25.8244,"Home-range/Territory","gps","Panthera pardus","LF02","Brandy","Daily satellite location data for leopard management in the North West Province, South Africa, 2014-2020"
17130060663,true,2014-09-07 10:00:33.000,27.50797,-25.82657,"Home-range/Territory","gps","Panthera pardus","LF02","Brandy","Daily satellite location data for leopard management in the North West Province, South Africa, 2014-2020"
17130060664,true,2014-09-08 10:00:33.000,27.5086,-25.84467,"Home-range/Territory","gps","Panthera pardus","LF02","Brandy","Daily satellite location data for leopard management in the North West Province, South Africa, 2014-2020"
17130060665,true,2014-09-09 10:00:33.000,27.44472,-25.84103,"Home-range/Territory","gps","Panthera pardus","LF02","Brandy","Daily satellite location data for leopard management in the North West Province, South Africa, 2014-2020"
17130060666,true,2014-09-10 10:00:33.000,27.4437,-25.84168,"Home-range/Territory","gps","Panthera pardus","LF02","Brandy","Daily satellite location data for leopard management in the North West Province, South Africa, 2014-2020"
17130060667,true,2014-09-11 10:00:33.000,27.44358,-25.8421,"Home-range/Territory","gps","Panthera pardus","LF02","Brandy","Daily satellite location data for leopard management in the North West Province, South Africa, 2014-2020"
17130060668,true,2014-09-12 10:00:33.000,27.44392,-25.84165,"Home-range/Territory","gps","Panthera pardus","LF02","Brandy","Daily satellite location data for leopard management in the North West Province, South Africa, 2014-2020"
17130060669,true,2014-09-13 10:00:33.000,27.44617,-25.85835,"Home-range/Territory","gps","Panthera pardus","LF02","Brandy","Daily satellite location data for leopard management in the North West Province, South Africa, 2014-2020"
17130060670,true,2014-09-14 10:00:33.000,27.51617,-25.82535,"Home-range/Territory","gps","Panthera pardus","LF02","Brandy","Daily satellite location data for leopard management in the North West Province, South Africa, 2014-2020"
17130060671,true,2014-09-15 10:00:33.000,27.60955,-25.80673,"Home-range/Territory","gps","Panthera pardus","LF02","Brandy","Daily satellite location data for leopard management in the North West Province, South Africa, 2014-2020"
17130060672,true,2014-09-16 10:01:34.000,27.69117,-25.7747,"Home-range/Territory","gps","Panthera pardus","LF02","Brandy","Daily satellite location data for leopard management in the North West Province, South Africa, 2014-2020"
17130060673,true,2014-09-17 10:00:33.000,27.71325,-25.76475,"Home-range/Territory","gps","Panthera pardus","LF02","Brandy","Daily satellite location data for leopard management in the North West Province, South Africa, 2014-2020"
17130060675,true,2014-09-18 10:00:34.000,27.71223,-25.7648,"Home-range/Territory","gps","Panthera pardus","LF02","Brandy","Daily satellite location data for leopard management in the North West Province, South Africa, 2014-2020"
17130060677,true,2014-09-19 10:00:33.000,27.72937,-25.76073,"Home-range/Territory","gps","Panthera pardus","LF02","Brandy","Daily satellite location data for leopard management in the North West Province, South Africa, 2014-2020"
17130060679,true,2014-09-20 10:00:33.000,27.68463,-25.78133,"Home-range/Territory","gps","Panthera pardus","LF02","Brandy","Daily satellite location data for leopard management in the North West Province, South Africa, 2014-2020"
17130060697,true,2014-10-08 10:00:33.000,27.48382,-25.86793,"Home-range/Territory","gps","Panthera pardus","LF02","Brandy","Daily satellite location data for leopard management in the North West Province, South Africa, 2014-2020"
17130060699,true,2014-10-09 10:00:33.000,27.4898,-25.86613,"Home-range/Territory","gps","Panthera pardus","LF02","Brandy","Daily satellite location data for leopard management in the North West Province, South Africa, 2014-2020"
17130060702,true,2014-10-11 10:01:04.000,27.55175,-25.8532,"Home-range/Territory","gps","Panthera pardus","LF02","Brandy","Daily satellite location data for leopard management in the North West Province, South Africa, 2014-2020"
17130060703,true,2014-10-12 10:00:33.000,27.55055,-25.85093,"Home-range/Territory","gps","Panthera pardus","LF02","Brandy","Daily satellite location data for leopard management in the North West Province, South Africa, 2014-2020"
17130060705,true,2014-10-13 10:00:33.000,27.60315,-25.82022,"Home-range/Territory","gps","Panthera pardus","LF02","Brandy","Daily satellite location data for leopard management in the North West Province, South Africa, 2014-2020"